This is the latest recevied weather packets stored in our database for station/object K0WOI. If no packets are shown the sender has not sent any weather packets the latest 1 day(s).
| Time | Temp. | Humidity | Pressure | Rain* | Wind** | Luminosity | Snow |
|---|---|---|---|---|---|---|---|
| 1836274668 | 15° C | 99% | 1016.1 hPa | 0 mm | 0 m/s | 0 W/m² | - |
| 1836274521 | 15.56° C | 99% | 1016.1 hPa | 0 mm | 0 m/s | 0 W/m² | - |
| 1836274366 | 15° C | 99% | 1016.1 hPa | 0 mm | 0 m/s | 0 W/m² | - |
| 1836274220 | 15° C | 99% | 1016 hPa | 0 mm | 0 m/s | 0 W/m² | - |
| 1836274064 | 15° C | 99% | 1015.8 hPa | 0 mm | 0 m/s | 0 W/m² | - |
| 1778049033 | 3.33° C | 79% | 1014.4 hPa | 0 mm | 0 m/s | 0 W/m² | - |
| 1778048731 | 3.33° C | 77% | 1014.2 hPa | 0 mm | 0 m/s | 0 W/m² | - |
| 1778048428 | 3.33° C | 76% | 1014.2 hPa | 0 mm | 0 m/s | 0 W/m² | - |
| 1778048124 | 3.89° C | 76% | 1014.3 hPa | 0 mm | 0 m/s | 0 W/m² | - |
| 1778047822 | 3.89° C | 70% | 1014.2 hPa | 0 mm | 0 m/s | 0 W/m² | - |
| 1778047520 | 4.44° C | 73% | 1013.9 hPa | 0 mm | 0 m/s | 0 W/m² | - |
| 1778047217 | 4.44° C | 70% | 1014.1 hPa | 0 mm | 0 m/s | 0 W/m² | - |
| 1778046914 | 5° C | 64% | 1014 hPa | 0 mm | 0 m/s | 0 W/m² | - |
| 1778046610 | 5° C | 61% | 1014 hPa | 0 mm | 0 m/s | 0 W/m² | - |
| 1778046308 | 5° C | 61% | 1014 hPa | 0 mm | 0 m/s | 0 W/m² | - |
| 1778046003 | 5.56° C | 59% | 1014 hPa | 0 mm | 0 m/s | 0 W/m² | - |
| 1778045702 | 5.56° C | 59% | 1013.9 hPa | 0 mm | 0.45 m/s, 318° | 0 W/m² | - |
| 1778045399 | 5.56° C | 59% | 1013.9 hPa | 0 mm | 0.45 m/s, 317° | 0 W/m² | - |
| 1778045098 | 5.56° C | 60% | 1013.8 hPa | 0 mm | 0.89 m/s, 317° | 0 W/m² | - |
| 1778044795 | 5° C | 68% | 1013.7 hPa | 0 mm | 0 m/s | 0 W/m² | - |
| 1778044492 | 5.56° C | 67% | 1013.5 hPa | 0 mm | 0 m/s | 0 W/m² | - |
| 1778044189 | 5.56° C | 63% | 1013.4 hPa | 0 mm | 0 m/s | 0 W/m² | - |
| 1778043887 | 5.56° C | 60% | 1013.5 hPa | 0 mm | 0.45 m/s, 318° | 0 W/m² | - |
| 1778043584 | 5.56° C | 60% | 1013.6 hPa | 0 mm | 0.45 m/s, 318° | 0 W/m² | - |
| 1778043280 | 5.56° C | 69% | 1013.4 hPa | 0 mm | 0.45 m/s, 318° | 0 W/m² | - |
* Rain latest hour (hover to see other rain measurements)
** Current wind speed in m/s (hover to see current wind gust speed)